Regional Weather Roundup
Issued by NWS Charleston, SC

Current Version | Previous Version | Text Only | Print | Product List | Glossary Off
Versions: 1 2 3 4 5 6 7 8 9 10 11 12 13 14 15 16 17 18 19 20 21 22 23 24 25 26 27 28 29 30 31 32 33 34 35 36 37 38 39 40 41 42 43 44 45 46 47 48 49 50

000
ASUS42 KCHS 211427
RWRCHS

Regional Weather Roundup
National Weather Service Charleston SC
1000 AM EDT MON MAY 21 2018

NOTE: "fair" indicates few or no clouds below 12,000 feet with no
significant weather and/or obstructions to visibility.

Not all stations are quality controlled. Use data with caution,
especially dewpoint observations.

SCZ027-030-031-034>040-042>050-211500-
...Southeast South Carolina...

CITY           SKY/WX    TMP DP  RH WIND       PRES   REMARKS
N Charleston   CLOUDY    78  70  76 CALM      30.19R
Waterfront Prk   N/A     75  73  93 CALM      30.03R
Mount Pleasant FAIR      77  73  88 CALM      30.19S
Johns Island     N/A     77  73  88 CALM      30.19S
Pinopolis        N/A     73  72  94 CALM      30.12R
Moncks Corner  FAIR      73  70  88 CALM      30.19S
Summerville    FAIR      75  70  83 CALM      30.20S
Beaufort MCAS  PTSUNNY   78  74  87 E7        30.18R
Beaufort Arpt  PTSUNNY   77  72  83 NE6       30.17F HAZE
Hilton Head Is PTSUNNY   77  73  88 E6        30.19R
Walterboro     FAIR      75  70  83 CALM      30.20R
Allendale      FAIR      75  72  88 CALM      30.19R

...Southern Midlands and Pee Dee...

CITY           SKY/WX    TMP DP  RH WIND       PRES   REMARKS
Georgetown     FAIR      77  73  88 W5        30.20S
Kingstree      FAIR      75  73  94 CALM      30.18S
Orangeburg     FAIR      75  67  76 CALM      30.19S
Barnwell       FAIR      73  68  83 E5        30.19S
Aiken          FAIR      77  64  65 E3        30.23S HAZE
Manning        FAIR      72  64  78 CALM      30.19S
Columbia       PTSUNNY   79  69  71 S7        30.17S
Sumter         CLOUDY    75  68  79 SW8       30.16S
Florence       FAIR      76  70  82 CALM      30.18R
Myrtle Beach   FAIR      78  69  73 SW8       30.19S
N Myrtle Beach FAIR      79  70  74 S8        30.18R

$$

GAZ063-065-086>088-099>101-113>116-118-119-134>141-150-211500-
...Southeast Georgia...

CITY           SKY/WX    TMP DP  RH WIND       PRES   REMARKS
Savannah Arpt  CLOUDY    78  73  84 E8        30.17S
Hunter AAF     PTSUNNY   78  75  93 E9        30.14S
Fort Stewart   PTSUNNY   79  72  79 E5        30.14S
Statesboro     CLOUDY    73  71  91 E5        30.18S
Sylvania       CLOUDY    78  73  85 E6        30.19S HAZE
Claxton        FOG       76  73  91 NE5       30.17S VSB 1/2

...CSRA, Central and far Southeast Georgia...

CITY           SKY/WX    TMP DP  RH WIND       PRES   REMARKS
Thomson        PTSUNNY   76  65  68 SE5       30.24S
Augusta-Bush   FAIR      74  68  81 CALM      30.18R
Augusta-Daniel FAIR      77  67  71 SE6       30.19S
Swainsboro     CLOUDY    77  72  83 E7        30.18S
Vidalia        CLOUDY    73  70  88 E8        30.17S
Eastman        CLOUDY    75  65  70 E7        30.18S
Hazlehurst     NOT AVBL
Alma           CLOUDY    77  72  84 E6        30.14R
Waycross       CLOUDY    80  76  89 SE10      30.13S
Jesup          PTSUNNY   81  72  74 CALM      30.15S
Baxley         CLOUDY    77  77 100 E7        30.14S
Brunswick      CLOUDY    81  72  74 SE6       30.15F
Saint Simons   CLOUDY    79  73  82 SE10      30.15R

$$

SCZ027-028-034-036>038-045-046-048>050-GAZ119-141-211500-
...Lake and Supplemental Coastal Observations...

STATION/POSITION TIME  TEMP    WIND        PRES    WAVE   SWELL
                       AIR SEA DIR/SP/G            HT/PER HT/PER/DIR
                 (UTC) (F)     (DEG/KT/KT) (MB)    (FT/S) (FT/S/D)
Winyah Bay       1330   75     250/  4     1022.0S
Lake Murray      1320   75     210/  5/  6 1021.0R
ACE Basin NERRS  1345   77      40/  2     1022.0S
Fort Pulaski     1400   76 78   90/ 11/ 12 1022.2
Sapelo Island    1400   81     120/  7     1021.0

$$

ANZ835-935-AMZ111-154-330-350-352-354-370-450-454-472-211500-
...C-MAN and Buoy Observations...

STATION/POSITION TIME  TEMP    WIND        PRES    WAVE   SWELL
                       AIR SEA DIR/SP/G            HT/PER HT/PER/DIR
                 (UTC) (F)     (DEG/KT/KT) (MB)    (FT/S) (FT/S/D)
Buoy 41004       1410      75   30/  2/  4 1022.3
Buoy 41008       1350   75 75   90/  6/  8 1021.1R   4/ 9   3/130/ 9
Folly Beach CMAN 1400   75      50/  4/  5 1022.9R
Capers Nearshore 1408   75 76   50/  4/  6 1023.1R
Fripp Nearshore  1408   76 76   70/  8/ 10 1021.8R


STATION/POSITION TIME  TEMP    WIND        PRES    WAVE   SWELL
                       AIR SEA DIR/SP/G            HT/PER HT/PER/DIR
                 (UTC) (F)     (DEG/KT/KT) (MB)    (FT/S) (FT/S/D)
5E St. Marys GA  1400      75                N/A     3/ 9
Frying Pan Buoy  1410   73 75  260/ 12/ 16 1022.7
Buoy 41025       1410   74 74  240/ 12/ 16 1021.9
Cape Lookout NC  1400          240/  9/ 12 1022.1R
Buoy 41002       1410      77  170/  8/ 10 1023.1
Buoy 41010       1410   78 79  120/ 17/ 21 1021.2
St Augustine FL  1400   75 75  140/  5/  5 1020.3R


$$




USA.gov is the U.S. government's official web portal to all federal, state and local government web resources and services.